When you browse on this site, cookies collect data to enhance your experience and personalize the content and advertising you see.
Visit our Privacy Policy to learn more. By continuing to use the site, you agree to this use of cookies and data.
  • In Latvia
  • List of Countries
  • For 7 days
  • Water Temperature
  • Weather Map
  • Weather Widgets
  • user-avatar
    Login

    Hourly Weather Drozdino

    Today, 22 February, Saturday

    Time Temperature Precipitation Wind Pressure Humidity
    00:00 -1°C° 0 mm 3 mps 753 mmHg 96%
    01:00 -1°C° 0 mm 3 mps 753 mmHg 96%
    02:00 0°C° 0 mm 3 mps 753 mmHg 96%
    03:00 -1°C° 0 mm 3 mps 753 mmHg 95%
    04:00 -1°C° 0 mm 3 mps 753 mmHg 95%
    05:00 -1°C° 0 mm 3 mps 753 mmHg 95%
    06:00 -1°C° 0 mm 2 mps 753 mmHg 95%
    07:00 -1°C° 0 mm 3 mps 753 mmHg 95%
    08:00 -1°C° 0 mm 3 mps 753 mmHg 96%
    09:00 -1°C° 0 mm 3 mps 753 mmHg 95%
    10:00 -1°C° 0 mm 4 mps 753 mmHg 94%
    11:00 -1°C° 0 mm 4 mps 753 mmHg 93%
    12:00 0°C° 0 mm 4 mps 753 mmHg 92%
    13:00 0°C° 0 mm 5 mps 752 mmHg 90%
    14:00 0°C° 0 mm 5 mps 752 mmHg 88%
    15:00 0°C° 0 mm 5 mps 752 mmHg 86%
    16:00 0°C° 0 mm 5 mps 751 mmHg 86%
    17:00 -1°C° 0 mm 5 mps 751 mmHg 86%
    18:00 -1°C° 0 mm 5 mps 750 mmHg 87%
    19:00 -1°C° 0 mm 5 mps 749 mmHg 86%
    20:00 -2°C° 0 mm 6 mps 749 mmHg 86%
    21:00 -2°C° 0 mm 6 mps 748 mmHg 86%
    22:00 -2°C° 0 mm 7 mps 747 mmHg 85%
    23:00 -2°C° 0 mm 7 mps 746 mmHg 84%

    Tomorrow, 23 February, Sunday

    Time Temperature Precipitation Wind Pressure Humidity
    00:00 -2°C° 0 mm 8 mps 745 mmHg 83%
    01:00 -2°C° 0 mm 8 mps 744 mmHg 82%
    02:00 -2°C° 0 mm 8 mps 743 mmHg 82%
    03:00 -4°C° 0 mm 9 mps 742 mmHg 82%
    04:00 -4°C° 0.3 mm 9 mps 740 mmHg 86%
    05:00 -4°C° 0.3 mm 9 mps 739 mmHg 90%
    06:00 -4°C° 0.3 mm 9 mps 737 mmHg 94%
    07:00 -4°C° 0.7 mm 9 mps 737 mmHg 95%
    08:00 -4°C° 0.7 mm 9 mps 736 mmHg 95%
    09:00 -4°C° 0.7 mm 9 mps 735 mmHg 96%
    10:00 -4°C° 0.4 mm 8 mps 734 mmHg 96%
    11:00 -2°C° 0.4 mm 8 mps 733 mmHg 96%
    12:00 -2°C° 0.4 mm 7 mps 732 mmHg 97%
    13:00 -2°C° 0.5 mm 6 mps 732 mmHg 97%
    14:00 -2°C° 0.5 mm 6 mps 732 mmHg 97%
    15:00 -1°C° 0.5 mm 5 mps 731 mmHg 97%
    16:00 -1°C° 0 mm 4 mps 731 mmHg 95%
    17:00 -1°C° 0 mm 4 mps 731 mmHg 93%
    18:00 0°C° 0 mm 3 mps 731 mmHg 91%
    19:00 -1°C° 0 mm 3 mps 731 mmHg 90%
    20:00 -2°C° 0 mm 4 mps 731 mmHg 89%
    21:00 -2°C° 0 mm 4 mps 731 mmHg 88%
    22:00 -2°C° 0 mm 4 mps 731 mmHg 88%
    23:00 -3°C° 0 mm 4 mps 731 mmHg 88%

    Day after tomorrow, 24 February, Monday

    Time Temperature Precipitation Wind Pressure Humidity
    00:00 -3°C° 0 mm 4 mps 730 mmHg 88%
    01:00 -3°C° 0 mm 4 mps 730 mmHg 89%
    02:00 -2°C° 0 mm 4 mps 730 mmHg 89%
    03:00 -2°C° 0 mm 4 mps 730 mmHg 90%
    04:00 -2°C° 0 mm 4 mps 730 mmHg 91%
    05:00 -2°C° 0 mm 4 mps 730 mmHg 91%
    06:00 -2°C° 0 mm 4 mps 730 mmHg 92%
    07:00 -2°C° 0 mm 5 mps 730 mmHg 90%
    08:00 -2°C° 0 mm 5 mps 730 mmHg 88%
    09:00 -2°C° 0 mm 5 mps 731 mmHg 87%
    10:00 -2°C° 0 mm 4 mps 731 mmHg 86%
    11:00 -1°C° 0 mm 4 mps 731 mmHg 84%
    12:00 -1°C° 0 mm 4 mps 731 mmHg 83%
    13:00 -1°C° 0 mm 4 mps 731 mmHg 85%
    14:00 0°C° 0 mm 3 mps 731 mmHg 87%
    15:00 0°C° 0 mm 3 mps 731 mmHg 88%
    16:00 0°C° 0 mm 3 mps 732 mmHg 89%
    17:00 -1°C° 0 mm 3 mps 732 mmHg 91%
    18:00 -1°C° 0 mm 3 mps 732 mmHg 92%
    19:00 -1°C° 0.2 mm 3 mps 733 mmHg 89%
    20:00 -2°C° 0.2 mm 4 mps 734 mmHg 87%
    21:00 -2°C° 0.2 mm 4 mps 734 mmHg 85%
    22:00 -3°C° 0 mm 4 mps 735 mmHg 85%
    23:00 -4°C° 0 mm 4 mps 735 mmHg 85%

    25 February, Tuesday

    Time Temperature Precipitation Wind Pressure Humidity
    00:00 -4°C° 0 mm 3 mps 735 mmHg 85%
    01:00 -5°C° 0 mm 4 mps 736 mmHg 84%
    02:00 -5°C° 0 mm 4 mps 736 mmHg 83%
    03:00 -5°C° 0 mm 4 mps 736 mmHg 83%
    04:00 -5°C° 0 mm 4 mps 736 mmHg 83%
    05:00 -5°C° 0 mm 4 mps 737 mmHg 83%
    06:00 -5°C° 0 mm 4 mps 737 mmHg 83%
    07:00 -5°C° 0 mm 4 mps 737 mmHg 82%
    08:00 -5°C° 0 mm 4 mps 738 mmHg 82%
    09:00 -5°C° 0 mm 5 mps 738 mmHg 82%
    10:00 -4°C° 0 mm 4 mps 738 mmHg 78%
    11:00 -3°C° 0 mm 4 mps 738 mmHg 74%
    12:00 -2°C° 0 mm 4 mps 738 mmHg 70%
    13:00 -2°C° 0 mm 4 mps 738 mmHg 68%
    14:00 -2°C° 0 mm 4 mps 739 mmHg 66%
    15:00 0°C° 0 mm 3 mps 739 mmHg 64%
    16:00 -1°C° 0 mm 3 mps 738 mmHg 69%
    17:00 -2°C° 0 mm 3 mps 738 mmHg 73%
    18:00 -2°C° 0 mm 2 mps 738 mmHg 77%
    19:00 -2°C° 0 mm 3 mps 738 mmHg 76%
    20:00 -2°C° 0 mm 3 mps 738 mmHg 75%
    21:00 -3°C° 0 mm 4 mps 738 mmHg 74%
    22:00 -3°C° 0 mm 4 mps 737 mmHg 77%
    23:00 -3°C° 0 mm 4 mps 737 mmHg 79%

    26 February, Wednesday

    Time Temperature Precipitation Wind Pressure Humidity
    00:00 -4°C° 0 mm 5 mps 736 mmHg 81%
    01:00 -4°C° 0.1 mm 5 mps 736 mmHg 85%
    02:00 -2°C° 0.1 mm 5 mps 735 mmHg 88%
    03:00 -3°C° 0.1 mm 6 mps 734 mmHg 92%
    04:00 -2°C° 0 mm 5 mps 734 mmHg 93%
    05:00 -1°C° 0 mm 5 mps 733 mmHg 94%
    06:00 -1°C° 0 mm 5 mps 733 mmHg 96%
    07:00 -1°C° 0 mm 5 mps 733 mmHg 95%
    08:00 0°C° 0 mm 5 mps 732 mmHg 94%
    09:00 0°C° 0 mm 5 mps 732 mmHg 93%
    10:00 +1°C° 0 mm 5 mps 731 mmHg 92%
    11:00 +1°C° 0 mm 6 mps 731 mmHg 91%
    12:00 +1°C° 0 mm 6 mps 730 mmHg 89%
    13:00 +1°C° 0.3 mm 6 mps 730 mmHg 90%
    14:00 +1°C° 0.3 mm 6 mps 730 mmHg 91%
    15:00 +1°C° 0.3 mm 5 mps 730 mmHg 92%
    16:00 +1°C° 0 mm 5 mps 731 mmHg 92%
    17:00 +1°C° 0 mm 4 mps 731 mmHg 91%
    18:00 +1°C° 0 mm 4 mps 732 mmHg 90%
    19:00 0°C° 0 mm 4 mps 733 mmHg 91%
    20:00 0°C° 0 mm 3 mps 733 mmHg 92%
    21:00 -1°C° 0 mm 2 mps 734 mmHg 92%
    22:00 -1°C° 0 mm 2 mps 735 mmHg 92%
    23:00 -1°C° 0 mm 2 mps 735 mmHg 93%

    27 February, Thursday

    Time Temperature Precipitation Wind Pressure Humidity
    00:00 -2°C° 0 mm 2 mps 736 mmHg 93%
    01:00 -2°C° 0 mm 2 mps 736 mmHg 93%
    02:00 0°C° 0 mm 1 mps 736 mmHg 93%
    03:00 0°C° 0 mm 1 mps 737 mmHg 93%
    04:00 0°C° 0 mm 1 mps 737 mmHg 92%
    05:00 0°C° 0 mm 1 mps 737 mmHg 91%
    06:00 0°C° 0 mm 1 mps 737 mmHg 90%
    07:00 +1°C° 0 mm 1 mps 737 mmHg 90%
    08:00 +1°C° 0 mm 1 mps 737 mmHg 90%
    09:00 -1°C° 0 mm 2 mps 737 mmHg 89%
    10:00 +1°C° 0 mm 2 mps 737 mmHg 88%
    11:00 +2°C° 0 mm 2 mps 737 mmHg 87%
    12:00 +1°C° 0 mm 3 mps 737 mmHg 85%
    13:00 +1°C° 0 mm 3 mps 737 mmHg 87%
    14:00 +2°C° 0 mm 3 mps 737 mmHg 88%
    15:00 +2°C° 0 mm 3 mps 736 mmHg 90%
    16:00 +1°C° 0.3 mm 3 mps 736 mmHg 92%
    17:00 0°C° 0.3 mm 4 mps 736 mmHg 95%
    18:00 0°C° 0.3 mm 4 mps 736 mmHg 97%
    19:00 0°C° 0.8 mm 4 mps 735 mmHg 97%
    20:00 0°C° 0.8 mm 4 mps 735 mmHg 97%
    21:00 0°C° 0.8 mm 4 mps 735 mmHg 97%
    22:00 +1°C° 1.3 mm 3 mps 735 mmHg 98%
    23:00 0°C° 1.3 mm 3 mps 734 mmHg 98%
    Show more